星链-5607 (STARLINK-5607 )

导读

STARLINK-5607是美国SpaceX公司星链(Starlink)星座的卫星,属于全球最大低轨卫星互联网项目的组成部分,于2023年1月31日发射升空。星链旨在为全球提供高速低延迟卫星互联网服务,可覆盖偏远区域,也支持城市地区网络服务。作为星链组网卫星,该卫星运行于近地轨道,助力SpaceX构建数万颗规模的卫星网络,提供宽带接入服务。

Basic Information
目录编号:
55404
目录名称:
STARLINK-5607
国际标识:
2023-014P
轨道中心:
EARTH
卫星名称:
星链-5607
卫星全名:
星链-5607 (STARLINK-5607 )
卫星状态:
在轨 (已飞行1231 天)
发射日期:
2023-01-31 UTC
国别 :
美国 (US)
星等 :
--
Orbit Information
数据来源 国际轨道数据 AOE轨道数据
星历时间 2026-06-14T18:21:56+0800
17小时前
查看轨道信息
2026-06-14T23:00:00+0800
13小时前
查看轨道信息
半长轴 6950.18km 6950.121km
偏心率 0.0003367 0.000391
轨道倾角 69.999° 69.993°
近地点辐角 268.553° 274.963°
升交点赤经 180.647° 180.158°
平近点角 91.524° 46.445°
近地点 569.702km 569.266km
远地点 574.384km 574.702km
周期 96.107分钟 96.106分钟
每日圈数 14.983342 14.983533
Detailed Information
固有亮度:
5
最大亮度:
2.5
卫星平台:
Starlink v1.5
覆盖范围:
全球
运营商:
太空探索技术公司
运营商所在国:
美国
制造商(研发单位):
太空探索技术公司
制造商所在国:
美国
使用方式:
暂无
Satellite Introduction
星链(Starlink)计划是由太空探索技术公司(SpaceX)提出的一个巨型低轨卫星互联网星座项目,计划在2019年至2024年间在太空搭建由约1.2万颗卫星组成的“星链”网络,其中1584颗将部署在地球上空550千米处的近地轨道,并从2020年开始工作。该卫星仍在工作。
2D Orbit Map
3D Orbit Map
Orbit Altitude Analysis Chart
Orbit Inclination Analysis Chart
Orbit Comprehensive Analysis Chart
View Comprehensive Chart